Brookings, OR

1:32 AM PDT on May 23, 2017 (GMT -0700)
Brookings State

Weather History for KBOK - May, 2014

Change the Weather History Date:

Thursday, May 1, 2014

  Actual Average Record
Temperature  
Mean Temperature 64 °F -  
Max Temperature 75 °F 61 °F 81 °F (2013)
Min Temperature 53 °F 44 °F 36 °F (1988)
Degree Days  
Heating Degree Days 1    
Growing Degree Days 14 (Base 50)    
Moisture  
Dew Point 48 °F    
Average Humidity 70    
Maximum Humidity 100    
Minimum Humidity 25    
Precipitation  
Precipitation 0.00 in - - ()
Sea Level Pressure  
Sea Level Pressure 30.11 in    
Wind  
Wind Speed 5 mph (SSE)    
Max Wind Speed 10 mph    
Max Gust Speed -    
Visibility 5 miles    
Events Fog    
Averages and records for this station are not official NWS values.
T = Trace of Precipitation, MM = Missing Value Source: NWS Daily Summary

Daily Weather History Graph

Daily Weather History Graph

Search for Another Location

Airport or City:

Trip Planner

Search our weather history database for the weather conditions in past years. The results will help you decide how hot, cold, wet, or windy it might be!

Date:

Astronomy

May. 01, 2014 Rise Set
Actual Time 6:12 AM PDT 8:16 PM PDT
Civil Twilight 5:42 AM PDT 8:46 PM PDT
Nautical Twilight 5:05 AM PDT 9:24 PM PDT
Astronomical Twilight 4:24 AM PDT 10:05 PM PDT
Moon 8:04 AM PDT (5/1) 10:55 PM PDT (5/1)
Length of Visible Light 15h 04m
Length of Day
14h 03m
Waxing Crescent, 7% of the Moon is Illuminated
May 1
Waxing Crescent
May 6
First Quarter
May 14
Full
May 21
Last Quarter
May 28
New

Hourly Weather History & Observations

Time (PDT) Temp. Dew Point Humidity Pressure Visibility Wind Dir Wind Speed Gust Speed Precip Events Conditions
12:56 AM 61.0 °F 43.9 °F 53% 30.05 in 10.0 mi East 4.6 mph - N/A   Clear
1:56 AM 59.9 °F 43.0 °F 54% 30.03 in 10.0 mi Variable 4.6 mph - N/A   Clear
2:56 AM 56.8 °F 43.0 °F 60% 30.02 in 10.0 mi East 5.8 mph - N/A   Clear
3:56 AM 59.0 °F 41.0 °F 51% 30.01 in 10.0 mi SE 5.8 mph - N/A   Clear
4:56 AM 55.9 °F 43.0 °F 62% 30.01 in 10.0 mi East 4.6 mph - N/A   Clear
5:56 AM 55.9 °F 43.9 °F 64% 30.01 in 10.0 mi East 5.8 mph - N/A   Clear
6:56 AM 57.9 °F 41.0 °F 53% 30.02 in 9.0 mi East 5.8 mph - N/A   Clear
7:56 AM 59.9 °F 43.9 °F 55% 30.03 in 9.0 mi East 3.5 mph - N/A   Clear
8:56 AM 64.9 °F 47.8 °F 54% 30.04 in 10.0 mi Calm Calm - N/A   Clear
9:56 AM 73.9 °F 41.0 °F 30% 30.06 in 9.0 mi ESE 4.6 mph - N/A   Clear
10:56 AM 75.9 °F 37.9 °F 25% 30.07 in 8.0 mi South 5.8 mph - N/A   Clear
12:56 PM 73.9 °F 41.0 °F 30% 30.11 in 9.0 mi SW 8.1 mph - N/A   Clear
1:56 PM 70.9 °F 45.0 °F 39% 30.13 in 8.0 mi SE 10.4 mph - N/A   Clear
2:56 PM 72.0 °F 43.9 °F 36% 30.13 in 8.0 mi SSE 9.2 mph - N/A   Clear
3:56 PM 72.9 °F 41.9 °F 33% 30.12 in 8.0 mi SSE 10.4 mph - N/A   Clear
4:56 PM 70.9 °F 45.0 °F 39% 30.12 in 9.0 mi SSE 9.2 mph - N/A   Clear
5:56 PM 70.0 °F 43.9 °F 39% 30.12 in 8.0 mi SSE 8.1 mph - N/A   Clear
6:56 PM 65.8 °F 48.9 °F 54% 30.12 in 8.0 mi South 8.1 mph - N/A   Clear
7:56 PM 61.0 °F 52.9 °F 75% 30.13 in 7.0 mi WSW 5.8 mph - N/A   Clear
8:09 PM 57.2 °F 53.6 °F 88% 30.13 in 2.0 mi SW 4.6 mph - N/A   Partly Cloudy
8:12 PM 57.2 °F 53.6 °F 88% 30.13 in 1.2 mi Variable 4.6 mph - N/A   Mostly Cloudy
8:14 PM 57.2 °F 53.6 °F 88% 30.13 in 0.5 mi WSW 4.6 mph - N/A Fog Fog
8:22 PM 55.4 °F 53.6 °F 94% 30.14 in 0.2 mi WSW 3.5 mph - N/A Fog Fog
8:43 PM 55.4 °F 53.6 °F 94% 30.14 in 0.5 mi SE 3.5 mph - N/A Fog Fog
8:56 PM 55.9 °F 54.0 °F 93% 30.14 in 0.5 mi South 3.5 mph - N/A Fog Fog
9:14 PM 55.4 °F 53.6 °F 94% 30.15 in 0.2 mi South 3.5 mph - N/A Fog Fog
9:32 PM 55.4 °F 53.6 °F 94% 30.15 in 0.5 mi South 3.5 mph - N/A Fog Fog
9:46 PM 55.4 °F 53.6 °F 94% 30.15 in 0.2 mi Variable 4.6 mph - N/A Fog Fog
9:56 PM 54.9 °F 54.0 °F 97% 30.16 in 0.5 mi Variable 4.6 mph - N/A Fog Fog
10:07 PM 55.4 °F 53.6 °F 94% 30.16 in 0.2 mi SSE 4.6 mph - N/A Fog Fog
10:32 PM 55.4 °F 53.6 °F 94% 30.16 in 0.5 mi Variable 5.8 mph - N/A Fog Fog
10:41 PM 53.6 °F 53.6 °F 100% 30.16 in 0.2 mi South 5.8 mph - N/A Fog Fog
10:56 PM 54.0 °F 52.9 °F 96% 30.17 in 1.5 mi South 6.9 mph - N/A   Overcast
11:04 PM 53.6 °F 53.6 °F 100% 30.17 in 2.0 mi SE 3.5 mph - N/A   Overcast
11:19 PM 53.6 °F 53.6 °F 100% 30.17 in 3.0 mi Variable 4.6 mph - N/A   Overcast
11:56 PM 54.0 °F 52.9 °F 96% 30.17 in 4.0 mi SSE 5.8 mph - N/A   Overcast